Starlink 1752

operational
NORAD ID: 46338 Int'l Des: 2020-062 Owner: SPXS Country: US Constellation: starlink
LEOCIRCULARSTARLINK_TYPE

Über Starlink 1752

Beschreibung wird geladen...

Live-Position

3D-Globus wird geladen...

Nächste Überflüge

Höhenverlauf

Altitude vs Time

uPlot chart will show altitude changes over time

Zweizeiliger Elementsatz

1 46338U 20062P 25304.91668980 .01767538 00000-0 55303-1 0 9999
2 46338 53.0553 233.7566 0001102 94.8444 79.3317 15.29744892 5833
Epoch: 31. Okt. 2025 • Age: 10 hours

Aktueller Status

Höhe 478.6 km
Geschwindigkeit 7.63 km/s
Subsatellitenpunkt -20.62°S, 53.07°E
Startdatum 3. Sept. 2020
Alter 5.1 years
Typ internet

Technische Details

Klassifizierung Payload
Masse 260.00 kg
Trockenmasse 248.00 kg
Gesamtmasse 260.00 kg
Länge 0.20 m
Durchmesser 2.80 m
Spannweite 9.00 m
Form Box + pan
Hersteller SPXS
Bus-Typ Starlink
Phasenstatus In Orbit
Besitzer/Staat SPXS/US

Große Konstellationen

Loading constellations...